Regional Weather Roundup
Issued by NWS Jackson, KY

Home | Current Version | Previous Version | Graphics & Text | Print | Product List | Glossary On
Versions: 1 2 3 4 5 6 7 8 9 10 11 12 13 14 15 16 17 18 19 20 21 22 23 24 25 26 27 28 29 30 31 32 33 34 35 36 37 38 39 40 41 42 43 44 45 46 47 48 49 50
000
ASUS43 KJKL 301610
RWRJKL

EAST KENTUCKY HOURLY WEATHER ROUNDUP
NATIONAL WEATHER SERVICE JACKSON KY
1200 PM EDT SUN AUG 30 2015

NOTE: "FAIR" INDICATES FEW OR NO CLOUDS BELOW 12,000 FEET WITH
NO SIGNIFICANT WEATHER AND/OR OBSTRUCTIONS TO VISIBILITY.

* THESE REPORTS ARE NOT UNDER NWS QUALITY CONTROL AND MAY NOT
  REPORT WEATHER SUCH AS PRECIPITATION AND FOG.

KYZ079-080-083-085-087-088-110-112-115-119-120-301700
...EASTERN KENTUCKY...

CITY           SKY/WX    TMP DP  RH WIND       PRES   REMARKS
JACKSON        CLOUDY    75  64  68 S3        30.20S
LONDON         CLOUDY    80  61  52 S6        30.20R
SOMERSET*      PTSUNNY   73  64  73 CALM      30.20S
MONTICELLO*    CLOUDY    78  68  71 CALM      30.21R
WILLIAMSBURG*  SUNNY     73  64  73 CALM      30.20R
MIDDLESBORO*   CLOUDY    72  66  80 CALM      30.21S
HAZARD APT*    SUNNY     77  68  73 CALM      30.20F
BLACK MTN*       N/A     68  63  83 VRB1        N/A
PIKEVILLE APT* SUNNY     72  64  78 CALM      30.21S
BIG SANDY*     CLOUDY    74  66  76 CALM      30.20S
MOREHEAD APT*  PTSUNNY   81  66  61 VRB7      30.19S
$$

KYZ035-036-041-042-044-050-067-078-099-301700
...CENTRAL KENTUCKY...

CITY           SKY/WX    TMP DP  RH WIND       PRES   REMARKS
MT STERLING*   PTSUNNY   77  68  73 W6        30.18F
FLEMING/MASON* SUNNY     81  68  65 SW7       30.17S
DANVILLE*      CLOUDY    75  68  78 SW5       30.18S
RICHMOND*      PTSUNNY   77  64  65 S5        30.17S
LEXINGTON      MOSUNNY   80  67  64 SW9       30.16S
FRANKFORT      SUNNY     81  66  60 SW12      30.13S
$$

KYZ091>093-OHZ055-061-077-WVZ005-015-034-035-042-301700
...SOUTHERN OHIO/WEST VIRGINIA...

CITY           SKY/WX    TMP DP  RH WIND       PRES   REMARKS
COVINGTON      PTSUNNY   78  70  76 S7        30.13S
COLUMBUS       PTSUNNY   77  69  76 S6        30.11F
DAYTON         MOSUNNY   78  71  79 S7        30.13S
WILMINGTON     SUNNY     78  69  73 S7        30.13S
HUNTINGTON     CLOUDY    78  67  68 VRB5      30.17R
CHARLESTON     CLOUDY    79  65  62 SW7       30.18R
PINEVILLE*     CLOUDY    74  67  78 MISG      30.28S
BECKLEY        CLOUDY    72  60  66 CALM      30.26R
BLUEFIELD      CLOUDY    76  59  55 CALM      30.28S
$$

VAZ002-007-008-TNZ017-027-036-066-071-301700
...SOUTHWEST VIRGINIA/EAST TENNESSEE...

CITY           SKY/WX    TMP DP  RH WIND       PRES   REMARKS
WISE*          CLOUDY    73  59  60 CALM      30.28S
JONESVILLE*    CLOUDY    73  55  53 CALM      30.23F
ABINGDON*      CLOUDY    76  58  52 CALM      30.25S
BRISTOL        CLOUDY    76  64  66 CALM      30.22S
KNOXVILLE      CLOUDY    70  66  87 E6        30.17R
OAK RIDGE      CLOUDY    77  66  68 CALM      30.19S
CROSSVILLE     CLOUDY    76  60  57 SE5       30.22R
NASHVILLE      CLOUDY    78  65  63 SE10      30.16R
$$

...KEY TO REMARKS...
VSB - VISIBILITY IN MILES
WCI - WIND CHILL INDEX
HX  - HEAT INDEX

$$



USA.gov is the U.S. government's official web portal to all federal, state and local government web resources and services.